| time (UTC) | temp C | wind direction | speed KPH | gust KPH | rain 1hr cm | rain 24hr cm | rain mn cm | humidity % | barometer mb |
| 20260510174022 | 30 | 46 | 1.6 | 9.7 | 0.00 | 0.00 | 0.00 | 1 | 1019.1 |
| 20260510173011 | 30 | 134 | 6.4 | 14.5 | 0.00 | 0.00 | 0.00 | 1 | 1019.0 |
| 20260510172504 | 30 | 93 | 6.4 | 14.5 | 0.00 | 0.00 | 0.00 | 1 | 1019.0 |
| 20260510171451 | 30 | 90 | 4.8 | 17.7 | 0.00 | 0.00 | 0.00 | 1 | 1019.0 |
| 20260510170948 | 29 | 45 | 4.8 | 17.7 | 0.00 | 0.00 | 0.00 | 1 | 1019.1 |
| 20260510170440 | 29 | 110 | 6.4 | 17.7 | 0.00 | 0.00 | 0.00 | 1 | 1019.0 |
| 20260510165934 | 29 | 49 | 4.8 | 14.5 | 0.00 | 0.00 | 0.00 | 1 | 1019.1 |
| 20260510165431 | 28 | 60 | 4.8 | 14.5 | 0.00 | 0.00 | 0.00 | 1 | 1019.1 |
| 20260510164925 | 28 | 206 | 6.4 | 14.5 | 0.00 | 0.00 | 0.00 | 1 | 1019.0 |
| 20260510163407 | 28 | 67 | 6.4 | 12.9 | 0.00 | 0.00 | 0.00 | 1 | 1019.0 |
| 20260510162858 | 28 | 20 | 6.4 | 12.9 | 0.00 | 0.00 | 0.00 | 1 | 1019.0 |
| 20260510162352 | 28 | 23 | 8.0 | 14.5 | 0.00 | 0.00 | 0.00 | 1 | 1019.0 |
| 20260510161845 | 27 | 24 | 6.4 | 16.1 | 0.00 | 0.00 | 0.00 | 1 | 1019.1 |
| 20260510154303 | 26 | 37 | 6.4 | 14.5 | 0.00 | 0.00 | 0.00 | 1 | 1019.1 |
| 20260510153802 | 26 | 77 | 4.8 | 14.5 | 0.00 | 0.00 | 0.00 | 1 | 1019.0 |
| 20260510153252 | 26 | 21 | 4.8 | 12.9 | 0.00 | 0.00 | 0.00 | 1 | 1019.1 |
| 20260510152745 | 25 | 15 | 4.8 | 12.9 | 0.00 | 0.00 | 0.00 | 1 | 1019.1 |
| 20260510151733 | 25 | 57 | 4.8 | 11.3 | 0.00 | 0.00 | 0.00 | 1 | 1019.1 |
| 20260510151226 | 25 | 27 | 4.8 | 12.9 | 0.00 | 0.00 | 0.00 | 1 | 1019.1 |
| 20260510150721 | 25 | 108 | 6.4 | 12.9 | 0.00 | 0.00 | 0.00 | 1 | 1019.1 |
| 20260510145204 | 25 | 93 | 3.2 | 9.7 | 0.00 | 0.00 | 0.00 | 1 | 1018.9 |
| 20260510144701 | 25 | 82 | 3.2 | 9.7 | 0.00 | 0.00 | 0.00 | 1 | 1018.9 |
| 20260510144151 | 24 | 106 | 3.2 | 9.7 | 0.00 | 0.00 | 0.00 | 2 | 1018.9 |
| 20260510143649 | 24 | 86 | 3.2 | 11.3 | 0.00 | 0.00 | 0.00 | 2 | 1018.8 |
| 20260510143139 | 23 | 10 | 3.2 | 11.3 | 0.00 | 0.00 | 0.00 | 2 | 1018.8 |
| 20260510142638 | 23 | 96 | 3.2 | 9.7 | 0.00 | 0.00 | 0.00 | 3 | 1018.8 |
| 20260510142127 | 23 | 25 | 3.2 | 8.0 | 0.00 | 0.00 | 0.00 | 3 | 1018.8 |
| 20260510141621 | 23 | 279 | 3.2 | 8.0 | 0.00 | 0.00 | 0.00 | 4 | 1018.6 |
| 20260510141114 | 23 | 79 | 1.6 | 6.4 | 0.00 | 0.00 | 0.00 | 4 | 1018.5 |
| 20260510135557 | 22 | 104 | 3.2 | 8.0 | 0.00 | 0.00 | 0.00 | 6 | 1018.5 |
| 20260510135053 | 22 | 89 | 3.2 | 8.0 | 0.00 | 0.00 | 0.00 | 6 | 1018.4 |
| 20260510134547 | 22 | 102 | 3.2 | 9.7 | 0.00 | 0.00 | 0.00 | 6 | 1018.4 |
| 20260510134044 | 22 | 75 | 1.6 | 9.7 | 0.00 | 0.00 | 0.00 | 7 | 1018.4 |
| 20260510133043 | 21 | 88 | 1.6 | 6.4 | 0.00 | 0.00 | 0.00 | 7 | 1018.2 |
| 20260510132547 | 21 | 122 | 3.2 | 8.0 | 0.00 | 0.00 | 0.00 | 7 | 1018.2 |
| 20260510132045 | 21 | 177 | 3.2 | 8.0 | 0.00 | 0.00 | 0.00 | 8 | 1018.1 |
| 20260510131546 | 20 | 198 | 1.6 | 6.4 | 0.00 | 0.00 | 0.00 | 9 | 1018.0 |
| 20260510131046 | 20 | 214 | 3.2 | 6.4 | 0.00 | 0.00 | 0.00 | 9 | 1017.8 |
| 20260510130544 | 19 | 186 | 3.2 | 6.4 | 0.00 | 0.00 | 0.00 | 9 | 1017.7 |
| 20260510130047 | 18 | 175 | 1.6 | 3.2 | 0.00 | 0.00 | 0.00 | 11 | 1017.7 |
| 20260510125546 | 18 | 194 | 1.6 | 3.2 | 0.00 | 0.00 | 0.00 | 11 | 1017.7 |
| 20260510125045 | 17 | 169 | 1.6 | 3.2 | 0.00 | 0.00 | 0.00 | 11 | 1017.6 |
| 20260510124542 | 17 | 197 | 1.6 | 3.2 | 0.00 | 0.00 | 0.00 | 11 | 1017.6 |
| 20260510123543 | 19 | 106 | 3.2 | 6.4 | 0.00 | 0.00 | 0.00 | 10 | 1017.4 |
| 20260510123039 | 19 | 107 | 4.8 | 8.0 | 0.00 | 0.00 | 0.00 | 10 | 1017.3 |
| 20260510122541 | 19 | 172 | 6.4 | 8.0 | 0.00 | 0.00 | 0.00 | 10 | 1017.2 |
| 20260510122040 | 19 | 168 | 6.4 | 9.7 | 0.00 | 0.00 | 0.00 | 10 | 1017.0 |
| 20260510121540 | 18 | 181 | 4.8 | 9.7 | 0.00 | 0.00 | 0.00 | 11 | 1017.0 |
| 20260510121041 | 18 | 180 | 3.2 | 8.0 | 0.00 | 0.00 | 0.00 | 11 | 1017.0 |
| 20260510120039 | 18 | 181 | 3.2 | 8.0 | 0.00 | 0.00 | 0.00 | 10 | 1017.0 |
| 20260510115540 | 18 | 196 | 4.8 | 9.7 | 0.00 | 0.00 | 0.00 | 10 | 1017.0 |
| 20260510115041 | 18 | 176 | 3.2 | 9.7 | 0.00 | 0.00 | 0.00 | 10 | 1017.0 |
| 20260510114536 | 18 | 198 | 3.2 | 4.8 | 0.00 | 0.00 | 0.00 | 10 | 1017.3 |
| 20260510114037 | 18 | 218 | 4.8 | 11.3 | 0.00 | 0.00 | 0.00 | 10 | 1017.3 |
| 20260510113536 | 18 | 207 | 3.2 | 11.3 | 0.00 | 0.00 | 0.00 | 10 | 1017.3 |
| 20260510113036 | 18 | 194 | 1.6 | 9.7 | 0.00 | 0.00 | 0.00 | 10 | 1017.3 |
| 20260510112036 | 19 | 173 | 1.6 | 4.8 | 0.00 | 0.00 | 0.00 | 10 | 1017.0 |
| 20260510111536 | 20 | 250 | 0.0 | 4.8 | 0.00 | 0.00 | 0.00 | 9 | 1016.9 |
| 20260510111035 | 20 | 142 | 0.0 | 4.8 | 0.00 | 0.00 | 0.00 | 9 | 1016.8 |
| 20260510110538 | 20 | 173 | 1.6 | 6.4 | 0.00 | 0.00 | 0.00 | 9 | 1016.7 |
| 20260510110036 | 20 | 160 | 4.8 | 11.3 | 0.00 | 0.00 | 0.00 | 9 | 1016.7 |
| 20260510105538 | 20 | 176 | 6.4 | 11.3 | 0.00 | 0.00 | 0.00 | 9 | 1016.6 |
| 20260510105037 | 21 | 186 | 4.8 | 11.3 | 0.00 | 0.00 | 0.00 | 9 | 1016.6 |
| 20260510104535 | 21 | 205 | 1.6 | 9.7 | 0.00 | 0.00 | 0.00 | 9 | 1016.5 |
| 20260510104036 | 20 | 161 | 0.0 | 6.4 | 0.00 | 0.00 | 0.00 | 9 | 1016.6 |
| 20260510103540 | 20 | 193 | 1.6 | 4.8 | 0.00 | 0.00 | 0.00 | 9 | 1016.5 |
| 20260510102034 | 22 | 122 | 1.6 | 6.4 | 0.00 | 0.00 | 0.00 | 7 | 1016.4 |
| 20260510101528 | 22 | 162 | 4.8 | 11.3 | 0.00 | 0.00 | 0.00 | 7 | 1016.4 |
| 20260510101023 | 22 | 179 | 4.8 | 11.3 | 0.00 | 0.00 | 0.00 | 8 | 1016.4 |
| 20260510100010 | 22 | 156 | 4.8 | 8.0 | 0.00 | 0.00 | 0.00 | 8 | 1016.5 |
| 20260510095507 | 21 | 181 | 3.2 | 4.8 | 0.00 | 0.00 | 0.00 | 8 | 1016.4 |
| 20260510094959 | 21 | 198 | 3.2 | 6.4 | 0.00 | 0.00 | 0.00 | 8 | 1016.5 |
| 20260510093443 | 22 | 172 | 3.2 | 8.0 | 0.00 | 0.00 | 0.00 | 8 | 1016.5 |
| 20260510091925 | 21 | 189 | 3.2 | 4.8 | 0.00 | 0.00 | 0.00 | 9 | 1016.4 |
| 20260510091416 | 21 | 152 | 0.0 | 4.8 | 0.00 | 0.00 | 0.00 | 8 | 1016.4 |
| 20260510090911 | 21 | 133 | 0.0 | 4.8 | 0.00 | 0.00 | 0.00 | 8 | 1016.4 |
| 20260510090406 | 21 | 117 | 0.0 | 3.2 | 0.00 | 0.00 | 0.00 | 7 | 1016.2 |
| 20260510085900 | 22 | 180 | 0.0 | 3.2 | 0.00 | 0.00 | 0.00 | 7 | 1016.2 |
| 20260510085353 | 22 | 157 | 1.6 | 8.0 | 0.00 | 0.00 | 0.00 | 7 | 1016.1 |
| 20260510084847 | 22 | 157 | 3.2 | 8.0 | 0.00 | 0.00 | 0.00 | 6 | 1016.1 |
| 20260510083834 | 22 | 190 | 4.8 | 12.9 | 0.00 | 0.00 | 0.00 | 6 | 1016.1 |
| 20260510083328 | 22 | 151 | 3.2 | 12.9 | 0.00 | 0.00 | 0.00 | 6 | 1016.0 |
| 20260510082822 | 22 | 184 | 3.2 | 6.4 | 0.00 | 0.00 | 0.00 | 6 | 1016.1 |
| 20260510081811 | 23 | 179 | 3.2 | 8.0 | 0.00 | 0.00 | 0.00 | 4 | 1016.0 |
| 20260510081305 | 24 | 153 | 1.6 | 8.0 | 0.00 | 0.00 | 0.00 | 3 | 1016.1 |
| 20260510080758 | 24 | 238 | 1.6 | 8.0 | 0.00 | 0.00 | 0.00 | 3 | 1016.0 |
| 20260510080252 | 24 | 219 | 3.2 | 9.7 | 0.00 | 0.00 | 0.00 | 3 | 1016.1 |
| 20260510075241 | 25 | 214 | 3.2 | 16.1 | 0.00 | 0.00 | 0.00 | 3 | 1016.0 |
| 20260510074733 | 25 | 212 | 1.6 | 9.7 | 0.00 | 0.00 | 0.00 | 3 | 1016.0 |
| 20260510074226 | 25 | 201 | 3.2 | 19.3 | 0.00 | 0.00 | 0.00 | 3 | 1016.0 |
| 20260510073721 | 25 | 252 | 4.8 | 19.3 | 0.00 | 0.00 | 0.00 | 3 | 1016.1 |
| 20260510073217 | 25 | 269 | 6.4 | 19.3 | 0.00 | 0.00 | 0.00 | 3 | 1016.0 |
| 20260510072711 | 25 | 239 | 6.4 | 19.3 | 0.00 | 0.00 | 0.00 | 4 | 1016.0 |
| 20260510072207 | 25 | 191 | 4.8 | 16.1 | 0.00 | 0.00 | 0.00 | 4 | 1015.9 |
| 20260510071656 | 25 | 146 | 6.4 | 22.5 | 0.00 | 0.00 | 0.00 | 4 | 1016.0 |
| 20260510071151 | 25 | 150 | 6.4 | 22.5 | 0.00 | 0.00 | 0.00 | 4 | 1015.9 |
| 20260510070644 | 25 | 92 | 8.0 | 22.5 | 0.00 | 0.00 | 0.00 | 4 | 1016.0 |
| 20260510070139 | 25 | 203 | 8.0 | 22.5 | 0.00 | 0.00 | 0.00 | 5 | 1015.9 |
| 20260510065632 | 25 | 224 | 6.4 | 14.5 | 0.00 | 0.00 | 0.00 | 5 | 1015.9 |
| 20260510065127 | 25 | 233 | 8.0 | 19.3 | 0.00 | 0.00 | 0.00 | 5 | 1015.9 |
| 20260510064116 | 25 | 199 | 8.0 | 20.9 | 0.00 | 0.00 | 0.00 | 5 | 1015.8 |
| 20260510063103 | 25 | 201 | 8.0 | 16.1 | 0.00 | 0.00 | 0.00 | 5 | 1015.9 |
| 20260510062557 | 25 | 209 | 6.4 | 16.1 | 0.00 | 0.00 | 0.00 | 5 | 1015.9 |
| 20260510062051 | 25 | 201 | 6.4 | 17.7 | 0.00 | 0.00 | 0.00 | 5 | 1015.9 |
| 20260510061545 | 25 | 159 | 6.4 | 17.7 | 0.00 | 0.00 | 0.00 | 5 | 1015.9 |
| 20260510061038 | 25 | 170 | 6.4 | 16.1 | 0.00 | 0.00 | 0.00 | 5 | 1015.8 |
| 20260510060533 | 25 | 204 | 4.8 | 14.5 | 0.00 | 0.00 | 0.00 | 5 | 1015.8 |
| 20260510060028 | 25 | 230 | 6.4 | 14.5 | 0.00 | 0.00 | 0.00 | 5 | 1015.8 |
| 20260510055017 | 25 | 208 | 4.8 | 16.1 | 0.00 | 0.00 | 0.00 | 6 | 1015.9 |
| 20260510054508 | 25 | 214 | 6.4 | 14.5 | 0.00 | 0.00 | 0.00 | 6 | 1015.9 |
| 20260510054003 | 25 | 272 | 4.8 | 16.1 | 0.00 | 0.00 | 0.00 | 6 | 1015.9 |
| 20260510053457 | 25 | 252 | 4.8 | 16.1 | 0.00 | 0.00 | 0.00 | 5 | 1016.0 |
| 20260510052950 | 25 | 120 | 4.8 | 14.5 | 0.00 | 0.00 | 0.00 | 5 | 1016.0 |
| 20260510052447 | 25 | 170 | 3.2 | 14.5 | 0.00 | 0.00 | 0.00 | 5 | 1016.0 |
| 20260510051939 | 25 | 262 | 3.2 | 11.3 | 0.00 | 0.00 | 0.00 | 5 | 1016.0 |
| 20260510051435 | 25 | 244 | 3.2 | 11.3 | 0.00 | 0.00 | 0.00 | 5 | 1015.9 |
| 20260510050927 | 25 | 206 | 3.2 | 11.3 | 0.00 | 0.00 | 0.00 | 4 | 1015.9 |
| 20260510050420 | 25 | 249 | 4.8 | 11.3 | 0.00 | 0.00 | 0.00 | 4 | 1015.9 |
| 20260510045914 | 25 | 230 | 4.8 | 12.9 | 0.00 | 0.00 | 0.00 | 2 | 1015.9 |
| 20260510045409 | 25 | 217 | 6.4 | 11.3 | 0.00 | 0.00 | 0.00 | 2 | 1015.8 |
| 20260510044903 | 26 | 179 | 6.4 | 12.9 | 0.00 | 0.00 | 0.00 | 2 | 1015.8 |
| 20260510044357 | 26 | 212 | 8.0 | 12.9 | 0.00 | 0.00 | 0.00 | 2 | 1015.8 |
| 20260510043347 | 26 | 233 | 8.0 | 12.9 | 0.00 | 0.00 | 0.00 | 1 | 1015.8 |
| 20260510042841 | 26 | 250 | 8.0 | 12.9 | 0.00 | 0.00 | 0.00 | 1 | 1015.8 |
| 20260510042333 | 25 | 241 | 6.4 | 12.9 | 0.00 | 0.00 | 0.00 | 2 | 1015.7 |
| 20260510041826 | 25 | 214 | 6.4 | 12.9 | 0.00 | 0.00 | 0.00 | 2 | 1015.7 |
| 20260510041321 | 26 | 224 | 6.4 | 14.5 | 0.00 | 0.00 | 0.00 | 2 | 1015.6 |
| 20260510040310 | 26 | 235 | 4.8 | 12.9 | 0.00 | 0.00 | 0.00 | 1 | 1015.6 |
| 20260510035805 | 26 | 242 | 3.2 | 6.4 | 0.00 | 0.00 | 0.00 | 1 | 1015.4 |
| 20260510035256 | 26 | 244 | 1.6 | 6.4 | 0.00 | 0.00 | 0.00 | 1 | 1015.3 |
| 20260510034247 | 25 | 284 | 1.6 | 6.4 | 0.00 | 0.00 | 0.00 | 2 | 1015.3 |
| 20260510033738 | 26 | 198 | 3.2 | 9.7 | 0.00 | 0.00 | 0.00 | 2 | 1015.2 |
| 20260510032733 | 25 | 252 | 3.2 | 9.7 | 0.00 | 0.00 | 0.00 | 2 | 1015.1 |
| 20260510032233 | 25 | 231 | 3.2 | 9.7 | 0.00 | 0.00 | 0.00 | 2 | 1015.0 |
| 20260510031737 | 26 | 181 | 3.2 | 8.0 | 0.00 | 0.00 | 0.00 | 2 | 1015.0 |
| 20260510031231 | 25 | 220 | 3.2 | 6.4 | 0.00 | 0.00 | 0.00 | 2 | 1015.0 |
| 20260510030731 | 25 | 190 | 3.2 | 6.4 | 0.00 | 0.00 | 0.00 | 3 | 1014.9 |
| 20260510030232 | 25 | 224 | 1.6 | 4.8 | 0.00 | 0.00 | 0.00 | 3 | 1014.9 |
| 20260510025729 | 26 | 238 | 1.6 | 6.4 | 0.00 | 0.00 | 0.00 | 3 | 1014.8 |
| 20260510025229 | 26 | 219 | 1.6 | 6.4 | 0.00 | 0.00 | 0.00 | 3 | 1014.6 |
| 20260510024730 | 26 | 248 | 1.6 | 8.0 | 0.00 | 0.00 | 0.00 | 3 | 1014.5 |
| 20260510024229 | 27 | 297 | 3.2 | 8.0 | 0.00 | 0.00 | 0.00 | 3 | 1014.5 |
| 20260510023230 | 27 | 297 | 3.2 | 14.5 | 0.00 | 0.00 | 0.00 | 2 | 1014.5 |
| 20260510022731 | 27 | 251 | 3.2 | 14.5 | 0.00 | 0.00 | 0.00 | 2 | 1014.4 |
| 20260510022230 | 27 | 285 | 1.6 | 8.0 | 0.00 | 0.00 | 0.00 | 3 | 1014.3 |
| 20260510021726 | 27 | 239 | 1.6 | 6.4 | 0.00 | 0.00 | 0.00 | 2 | 1014.3 |
| 20260510021227 | 27 | 278 | 1.6 | 6.4 | 0.00 | 0.00 | 0.00 | 2 | 1014.3 |
| 20260510020725 | 28 | 204 | 1.6 | 6.4 | 0.00 | 0.00 | 0.00 | 2 | 1014.3 |
| 20260510020227 | 28 | 228 | 3.2 | 8.0 | 0.00 | 0.00 | 0.00 | 2 | 1014.3 |
| 20260510015223 | 29 | 231 | 3.2 | 9.7 | 0.00 | 0.00 | 0.00 | 1 | 1014.2 |
| 20260510014724 | 30 | 292 | 3.2 | 9.7 | 0.00 | 0.00 | 0.00 | 1 | 1014.2 |
| 20260510014223 | 30 | 245 | 3.2 | 9.7 | 0.00 | 0.00 | 0.00 | 1 | 1014.2 |
| 20260510012221 | 31 | 279 | 4.8 | 16.1 | 0.00 | 0.00 | 0.00 | 1 | 1014.0 |
| 20260510011719 | 30 | 278 | 6.4 | 19.3 | 0.00 | 0.00 | 0.00 | 1 | 1014.1 |
| 20260510011223 | 31 | 340 | 4.8 | 19.3 | 0.00 | 0.00 | 0.00 | 1 | 1014.1 |
| 20260510010719 | 31 | 255 | 4.8 | 17.7 | 0.00 | 0.00 | 0.00 | 1 | 1014.0 |
| 20260510010221 | 31 | 286 | 4.8 | 17.7 | 0.00 | 0.00 | 0.00 | 1 | 1014.1 |
| 20260510005719 | 31 | 275 | 3.2 | 9.7 | 0.00 | 0.00 | 0.00 | 1 | 1014.1 |
| 20260510005223 | 31 | 293 | 3.2 | 12.9 | 0.00 | 0.00 | 0.00 | 1 | 1014.1 |
| 20260510004719 | 31 | 321 | 4.8 | 14.5 | 0.00 | 0.00 | 0.00 | 1 | 1014.1 |
| 20260510004219 | 31 | 219 | 4.8 | 14.5 | 0.00 | 0.00 | 0.00 | 1 | 1014.1 |
| 20260510003719 | 31 | 179 | 6.4 | 12.9 | 0.00 | 0.00 | 0.00 | 1 | 1014.0 |
| 20260510003219 | 31 | 188 | 6.4 | 16.1 | 0.00 | 0.00 | 0.00 | 1 | 1014.0 |
| 20260510002719 | 31 | 294 | 6.4 | 16.1 | 0.00 | 0.00 | 0.00 | 1 | 1014.0 |
| 20260510001721 | 32 | 136 | 4.8 | 20.9 | 0.00 | 0.00 | 0.00 | 1 | 1014.0 |
| 20260510000719 | 32 | 211 | 8.0 | 20.9 | 0.00 | 0.00 | 0.00 | 1 | 1014.0 |
| 20260510000221 | 31 | 238 | 8.0 | 20.9 | 0.00 | 0.00 | 0.00 | 1 | 1013.8 |
| 20260509235719 | 31 | 260 | 9.7 | 20.9 | 0.00 | 0.00 | 0.00 | 1 | 1014.0 |
| 20260509235219 | 31 | 200 | 8.0 | 24.1 | 0.00 | 0.00 | 0.00 | 1 | 1014.1 |
| 20260509234718 | 31 | 254 | 4.8 | 24.1 | 0.00 | 0.00 | 0.00 | 1 | 1014.1 |
| 20260509234214 | 32 | 290 | 6.4 | 17.7 | 0.00 | 0.00 | 0.00 | 1 | 1014.2 |
| 20260509233714 | 32 | 293 | 6.4 | 17.7 | 0.00 | 0.00 | 0.00 | 1 | 1014.3 |
| 20260509233214 | 32 | 273 | 4.8 | 16.1 | 0.00 | 0.00 | 0.00 | 1 | 1014.2 |
| 20260509232714 | 32 | 204 | 6.4 | 24.1 | 0.00 | 0.00 | 0.00 | 1 | 1014.1 |
| 20260509232212 | 32 | 282 | 8.0 | 24.1 | 0.00 | 0.00 | 0.00 | 1 | 1014.2 |
| 20260509231713 | 32 | 231 | 8.0 | 22.5 | 0.00 | 0.00 | 0.00 | 1 | 1014.2 |
| 20260509231210 | 32 | 195 | 6.4 | 22.5 | 0.00 | 0.00 | 0.00 | 1 | 1014.2 |
| 20260509230710 | 32 | 262 | 8.0 | 29.0 | 0.00 | 0.00 | 0.00 | 1 | 1014.2 |
| 20260509230203 | 31 | 150 | 9.7 | 29.0 | 0.00 | 0.00 | 0.00 | 1 | 1014.2 |
| 20260509225657 | 32 | 213 | 8.0 | 19.3 | 0.00 | 0.00 | 0.00 | 1 | 1014.2 |
| 20260509225151 | 32 | 203 | 9.7 | 27.4 | 0.00 | 0.00 | 0.00 | 1 | 1014.1 |
| 20260509224646 | 32 | 141 | 11.3 | 30.6 | 0.00 | 0.00 | 0.00 | 1 | 1014.3 |
| 20260509224141 | 31 | 143 | 9.7 | 30.6 | 0.00 | 0.00 | 0.00 | 1 | 1014.2 |
| 20260509223634 | 31 | 265 | 8.0 | 20.9 | 0.00 | 0.00 | 0.00 | 1 | 1014.2 |
| 20260509223127 | 31 | 288 | 6.4 | 24.1 | 0.00 | 0.00 | 0.00 | 1 | 1014.3 |
| 20260509222622 | 32 | 274 | 8.0 | 24.1 | 0.00 | 0.00 | 0.00 | 1 | 1014.4 |
| 20260509222116 | 31 | 293 | 8.0 | 20.9 | 0.00 | 0.00 | 0.00 | 1 | 1014.5 |
| 20260509220616 | 31 | 305 | 9.7 | 37.0 | 0.00 | 0.00 | 0.00 | 1 | 1014.6 |
| 20260509220112 | 32 | 196 | 11.3 | 37.0 | 0.00 | 0.00 | 0.00 | 1 | 1014.8 |
| 20260509215114 | 32 | 301 | 6.4 | 20.9 | 0.00 | 0.00 | 0.00 | 1 | 1014.9 |
| 20260509214614 | 32 | 290 | 3.2 | 12.9 | 0.00 | 0.00 | 0.00 | 1 | 1014.9 |
| 20260509213610 | 31 | 229 | 8.0 | 17.7 | 0.00 | 0.00 | 0.00 | 1 | 1015.2 |
| 20260509213114 | 31 | 252 | 9.7 | 22.5 | 0.00 | 0.00 | 0.00 | 1 | 1015.1 |
| 20260509212611 | 31 | 267 | 8.0 | 22.5 | 0.00 | 0.00 | 0.00 | 1 | 1015.2 |
| 20260509212111 | 32 | 246 | 6.4 | 24.1 | 0.00 | 0.00 | 0.00 | 1 | 1015.2 |
| 20260509211611 | 31 | 324 | 8.0 | 24.1 | 0.00 | 0.00 | 0.00 | 1 | 1015.1 |
| 20260509211110 | 32 | 306 | 8.0 | 22.5 | 0.00 | 0.00 | 0.00 | 1 | 1015.2 |
| 20260509210114 | 31 | 225 | 9.7 | 22.5 | 0.00 | 0.00 | 0.00 | 1 | 1015.3 |
| 20260509205608 | 31 | 281 | 11.3 | 24.1 | 0.00 | 0.00 | 0.00 | 1 | 1015.4 |
| 20260509205100 | 31 | 300 | 9.7 | 24.1 | 0.00 | 0.00 | 0.00 | 1 | 1015.3 |
| 20260509204556 | 31 | 281 | 8.0 | 20.9 | 0.00 | 0.00 | 0.00 | 1 | 1015.4 |
| 20260509204047 | 31 | 299 | 9.7 | 24.1 | 0.00 | 0.00 | 0.00 | 1 | 1015.6 |
| 20260509203542 | 31 | 346 | 9.7 | 24.1 | 0.00 | 0.00 | 0.00 | 1 | 1015.7 |
| 20260509202530 | 31 | 196 | 8.0 | 24.1 | 0.00 | 0.00 | 0.00 | 1 | 1015.6 |
| 20260509202024 | 31 | 305 | 8.0 | 24.1 | 0.00 | 0.00 | 0.00 | 1 | 1015.7 |
| 20260509201519 | 31 | 221 | 8.0 | 22.5 | 0.00 | 0.00 | 0.00 | 1 | 1015.7 |
| 20260509201012 | 31 | 264 | 11.3 | 33.8 | 0.00 | 0.00 | 0.00 | 1 | 1015.8 |
| 20260509200507 | 31 | 194 | 11.3 | 33.8 | 0.00 | 0.00 | 0.00 | 1 | 1015.7 |
| 20260509195959 | 31 | 125 | 8.0 | 27.4 | 0.00 | 0.00 | 0.00 | 1 | 1015.8 |
| 20260509195454 | 31 | 322 | 8.0 | 20.9 | 0.00 | 0.00 | 0.00 | 1 | 1015.7 |
| 20260509194441 | 31 | 264 | 6.4 | 29.0 | 0.00 | 0.00 | 0.00 | 1 | 1015.8 |
| 20260509193935 | 31 | 210 | 6.4 | 29.0 | 0.00 | 0.00 | 0.00 | 1 | 1015.8 |
| 20260509192923 | 31 | 316 | 8.0 | 25.7 | 0.00 | 0.00 | 0.00 | 1 | 1016.1 |
| 20260509191911 | 31 | 250 | 4.8 | 14.5 | 0.00 | 0.00 | 0.00 | 1 | 1016.0 |
| 20260509191406 | 31 | 246 | 4.8 | 14.5 | 0.00 | 0.00 | 0.00 | 1 | 1016.0 |
| 20260509190900 | 31 | 228 | 6.4 | 16.1 | 0.00 | 0.00 | 0.00 | 1 | 1016.0 |
| 20260509190354 | 31 | 298 | 9.7 | 19.3 | 0.00 | 0.00 | 0.00 | 1 | 1016.2 |
| 20260509185847 | 31 | 299 | 8.0 | 19.3 | 0.00 | 0.00 | 0.00 | 1 | 1016.1 |
| 20260509184835 | 31 | 173 | 6.4 | 20.9 | 0.00 | 0.00 | 0.00 | 2 | 1016.4 |
| 20260509184329 | 31 | 29 | 6.4 | 14.5 | 0.00 | 0.00 | 0.00 | 2 | 1016.1 |
| 20260509183824 | 30 | 200 | 6.4 | 19.3 | 0.00 | 0.00 | 0.00 | 1 | 1016.2 |
| 20260509183320 | 30 | 240 | 6.4 | 19.3 | 0.00 | 0.00 | 0.00 | 1 | 1016.4 |
| 20260509182812 | 30 | 300 | 6.4 | 14.5 | 0.00 | 0.00 | 0.00 | 3 | 1016.2 |
| 20260509182307 | 30 | 150 | 6.4 | 20.9 | 0.00 | 0.00 | 0.00 | 2 | 1016.4 |
| 20260509181800 | 30 | 293 | 6.4 | 20.9 | 0.00 | 0.00 | 0.00 | 2 | 1016.5 |
| 20260509180748 | 30 | 276 | 8.0 | 22.5 | 0.00 | 0.00 | 0.00 | 3 | 1016.7 |
| 20260509175735 | 30 | 343 | 6.4 | 16.1 | 0.00 | 0.00 | 0.00 | 2 | 1016.8 |
| 20260509175230 | 30 | 11 | 4.8 | 16.1 | 0.00 | 0.00 | 0.00 | 2 | 1016.8 |
| 20260509174724 | 30 | 189 | 6.4 | 16.1 | 0.00 | 0.00 | 0.00 | 2 | 1016.7 |